Date String (YYYY-MM-DD hh:mm:ss) UTC,Instrument flags,Ambient pressure (hPa),Sample flow (lpm),Bypass flow (lpm),Sample temperature (°C),Ambient temperature (°C),ASC tube jacket temperature (°C),LED temperature (°C),Box temperature (°C),Sample RH (%),Span deviation,Mass concentration (μg/m³),Mass concentration (μg/m³),Mass concentration (μg/m³)
DateTimeUTC,F1_M11,P_M11,Q1_M11,Q2_M11,T1_M11,T2_M11,T3_M11,T4_M11,T5_M11,U1_M11,ZSPAN_M11,X2_M11,X0_M11,X1_M11
2022-02-09 18:00:00,,0827.0,4.99,0.00,25.0,24.2,00.0,33.8,26.8,10.4,0000.0,0005.00,0014.22,0003.80
2022-02-09 18:01:00,,0826.8,5.01,0.00,25.0,24.2,00.0,33.9,26.9,10.5,0000.0,0004.98,0015.21,0003.79
2022-02-09 18:02:00,,0827.0,5.00,0.00,25.0,24.2,00.0,33.9,26.9,10.5,0000.0,0004.93,0014.88,0003.75
2022-02-09 18:03:00,,0826.9,5.00,0.00,25.1,24.3,00.0,33.9,26.9,10.6,0000.0,0004.87,0015.29,0003.73
2022-02-09 18:04:00,,0826.9,5.02,0.00,25.1,24.3,00.0,33.9,26.9,10.5,0000.0,0004.85,0015.51,0003.70
2022-02-09 18:05:00,,0826.8,5.00,0.00,25.1,24.3,00.0,33.9,27.0,10.5,0000.0,0004.85,0015.95,0003.69
2022-02-09 18:06:00,,0826.8,5.01,0.00,25.1,24.3,00.0,33.9,27.0,10.5,0000.0,0004.92,0015.61,0003.68
2022-02-09 18:07:00,,0826.9,4.99,0.00,25.1,24.3,00.0,34.0,27.0,10.5,0000.0,0004.91,0015.43,0003.68
2022-02-09 18:08:00,,0826.9,5.00,0.00,25.1,24.3,00.0,34.0,27.0,10.5,0000.0,0004.91,0015.50,0003.69
2022-02-09 18:09:00,,0826.9,5.00,0.00,25.1,24.4,00.0,34.0,27.0,10.5,0000.0,0004.90,0015.68,0003.68
2022-02-09 18:10:00,,0826.9,5.00,0.00,25.2,24.4,00.0,34.0,27.0,10.3,0000.0,0004.89,0015.43,0003.68
2022-02-09 18:11:00,,0826.8,4.99,0.00,25.2,24.4,00.0,34.0,27.1,10.4,0000.0,0004.90,0014.97,0003.68
2022-02-09 18:12:00,,0826.9,5.01,0.00,25.2,24.4,00.0,34.0,27.1,10.3,0000.0,0004.90,0013.75,0003.68
2022-02-09 18:13:00,,0826.9,5.00,0.00,25.2,24.4,00.0,34.1,27.1,10.4,0000.0,0004.91,0013.56,0003.70
2022-02-09 18:14:00,,0826.8,4.99,0.00,25.2,24.4,00.0,34.1,27.1,10.7,0000.0,0004.99,0013.13,0003.73
2022-02-09 18:15:00,,0826.8,5.02,0.00,25.3,24.5,00.0,34.1,27.2,10.3,0000.0,0005.03,0013.61,0003.74
2022-02-09 18:16:00,,0826.8,4.99,0.00,25.3,24.5,00.0,34.1,27.2,10.5,0000.0,0005.02,0013.11,0003.75
2022-02-09 18:17:00,,0826.8,5.00,0.00,25.3,24.5,00.0,34.1,27.2,10.5,0000.0,0004.98,0013.47,0003.76
2022-02-09 18:18:00,,0826.7,5.01,0.00,25.3,24.5,00.0,34.1,27.2,10.7,0000.0,0004.94,0014.01,0003.76
2022-02-09 18:19:00,,0826.8,4.99,0.00,25.3,24.6,00.0,34.2,27.2,10.8,0000.0,0004.88,0014.09,0003.76
2022-02-09 18:20:00,,0826.8,5.01,0.00,25.4,24.6,00.0,34.2,27.3,10.8,0000.0,0004.86,0013.83,0003.75
2022-02-09 18:21:00,,0826.8,5.01,0.00,25.4,24.6,00.0,34.2,27.3,10.7,0000.0,0004.87,0013.69,0003.77
2022-02-09 18:22:00,,0826.8,4.98,0.00,25.4,24.6,00.0,34.2,27.3,10.6,0000.0,0004.84,0014.17,0003.78
2022-02-09 18:23:00,,0826.8,5.02,0.00,25.4,24.6,00.0,34.2,27.3,10.6,0000.0,0004.84,0016.17,0003.78
2022-02-09 18:24:00,,0826.7,4.98,0.00,25.4,24.7,00.0,34.2,27.3,10.5,0000.0,0004.86,0016.57,0003.77
2022-02-09 18:25:00,,0826.8,4.99,0.00,25.4,24.7,00.0,34.2,27.3,10.7,0000.0,0004.89,0017.66,0003.75
2022-02-09 18:26:00,,0826.8,5.01,0.00,25.4,24.7,00.0,34.3,27.3,10.4,0000.0,0004.90,0018.43,0003.75
2022-02-09 18:27:00,,0826.8,5.01,0.00,25.4,24.7,00.0,34.3,27.3,10.5,0000.0,0004.91,0020.44,0003.75
2022-02-09 18:28:00,,0826.8,4.99,0.00,25.5,24.7,00.0,34.3,27.3,10.7,0000.0,0004.94,0020.58,0003.75
2022-02-09 18:29:00,,0826.8,5.02,0.00,25.5,24.7,00.0,34.3,27.4,10.7,0000.0,0004.98,0020.20,0003.75
2022-02-09 18:30:00,,0826.8,4.99,0.00,25.5,24.8,00.0,34.3,27.4,10.7,0000.0,0005.05,0020.62,0003.75
2022-02-09 18:31:00,,0826.7,5.02,0.00,25.5,24.8,00.0,34.3,27.4,10.7,0000.0,0005.09,0020.65,0003.76
2022-02-09 18:32:00,,0826.7,4.99,0.00,25.5,24.8,00.0,34.4,27.4,10.4,0000.0,0005.11,0021.42,0003.77
2022-02-09 18:33:00,,0826.7,5.01,0.00,25.6,24.8,00.0,34.4,27.5,10.6,0000.0,0005.20,0021.72,0003.76
2022-02-09 18:34:00,,0826.6,4.98,0.00,25.6,24.8,00.0,34.4,27.5,10.3,0000.0,0005.21,0020.38,0003.76
2022-02-09 18:35:00,,0826.6,5.01,0.00,25.6,24.8,00.0,34.4,27.5,10.2,0000.0,0005.22,0019.96,0003.76
2022-02-09 18:36:00,,0826.5,5.01,0.00,25.6,24.8,00.0,34.4,27.5,10.4,0000.0,0005.16,0020.60,0003.76
2022-02-09 18:37:00,,0826.5,4.99,0.00,25.6,24.8,00.0,34.5,27.5,10.4,0000.0,0005.12,0020.28,0003.75
2022-02-09 18:38:00,,0826.5,5.01,0.00,25.6,24.9,00.0,34.5,27.5,10.4,0000.0,0005.15,0017.85,0003.75
2022-02-09 18:39:00,,0826.5,5.01,0.00,25.6,24.9,00.0,34.5,27.5,10.4,0000.0,0005.14,0017.34,0003.75
2022-02-09 18:40:00,,0826.5,4.98,0.00,25.6,24.9,00.0,34.5,27.5,10.5,0000.0,0005.15,0017.27,0003.74
2022-02-09 18:41:00,,0826.4,5.02,0.00,25.6,24.9,00.0,34.5,27.5,10.5,0000.0,0005.15,0017.89,0003.75
2022-02-09 18:42:00,,0826.3,5.00,0.00,25.7,24.9,00.0,34.5,27.6,10.2,0000.0,0005.18,0018.05,0003.74
2022-02-09 18:43:00,,0826.4,5.00,0.00,25.7,24.9,00.0,34.5,27.6,10.3,0000.0,0005.12,0016.81,0003.73
2022-02-09 18:44:00,,0826.3,4.99,0.00,25.7,25.0,00.0,34.6,27.6,10.3,0000.0,0005.04,0016.48,0003.72
2022-02-09 18:45:00,,0826.3,5.00,0.00,25.7,25.0,00.0,34.6,27.6,10.5,0000.0,0005.05,0015.90,0003.72
2022-02-09 18:46:00,,0826.3,5.00,0.00,25.7,25.0,00.0,34.6,27.6,10.2,0000.0,0005.05,0015.88,0003.71
2022-02-09 18:47:00,,0826.3,5.00,0.00,25.7,25.0,00.0,34.6,27.6,10.1,0000.0,0005.03,0014.53,0003.71
2022-02-09 18:48:00,,0826.3,4.99,0.00,25.8,25.0,00.0,34.6,27.7,10.0,0000.0,0004.95,0013.59,0003.71
2022-02-09 18:49:00,,0826.2,5.00,0.00,25.8,25.0,00.0,34.6,27.7,09.9,0000.0,0004.85,0013.79,0003.69
2022-02-09 18:50:00,,0826.2,5.01,0.00,25.8,25.1,00.0,34.6,27.7,10.1,0000.0,0004.84,0014.54,0003.68
2022-02-09 18:51:00,,0826.1,5.01,0.00,25.8,25.1,00.0,34.7,27.7,10.2,0000.0,0004.75,0014.57,0003.68
2022-02-09 18:52:00,,0826.1,4.99,0.00,25.8,25.1,00.0,34.7,27.7,10.3,0000.0,0004.73,0013.54,0003.67
2022-02-09 18:53:00,,0826.1,4.99,0.00,25.9,25.1,00.0,34.7,27.7,10.2,0000.0,0004.69,0014.21,0003.67
2022-02-09 18:54:00,,0826.1,5.02,0.00,25.9,25.1,00.0,34.7,27.8,10.1,0000.0,0004.70,0014.30,0003.64
2022-02-09 18:55:00,,0826.1,4.99,0.00,25.9,25.1,00.0,34.7,27.8,10.3,0000.0,0004.64,0013.82,0003.62
2022-02-09 18:56:00,,0826.1,4.99,0.00,25.9,25.2,00.0,34.7,27.8,10.3,0000.0,0004.57,0013.72,0003.60
2022-02-09 18:57:00,,0826.1,5.01,0.00,25.9,25.2,00.0,34.8,27.8,10.4,0000.0,0004.54,0013.54,0003.59
2022-02-09 18:58:00,,0826.0,5.01,0.00,25.9,25.2,00.0,34.8,27.8,10.4,0000.0,0004.56,0014.27,0003.58
2022-02-09 18:59:00,,0826.0,4.99,0.00,26.0,25.2,00.0,34.8,27.8,10.5,0000.0,0004.56,0013.83,0003.58
